This demonstration page uses our WeatherBlox Daily Observations layout. Learn more.

Left ArrowRight Arrow

39.95238, -75.16362

Hourly Observations for April 5, 2015

Temp ( °F °C ) Dew Point ( °F °C ) Humidity (%) Winds ( mph kmh ) Pressure ( in mb ) Visibility ( mi km ) Precip ( " mm )
12:54 am 00:54 Mostly Clear 42 5.6 22 -5.6 45 45 WSW 7 11 30.20 1023 10 16 0.00 0.00
1:54 am 01:54 Mostly Clear 44 6.7 22 -5.6 41 41 SW 9 15 30.20 1023 10 16 0.00 0.00
2:54 am 02:54 Clear 45 7.2 21 -6.1 39 39 SW 13 20 30.20 1023 10 16 0.00 0.00
3:54 am 03:54 Clear 42 5.6 24 -4.4 49 49 WSW 9 15 30.21 1023 10 16 0.00 0.00
4:54 am 04:54 Clear 43 6.1 24 -4.4 47 47 SW 12 19 30.22 1023 10 16 0.00 0.00
5:54 am 05:54 Mostly Clear 43 6.1 26 -3.3 51 51 SW 13 20 30.23 1024 10 16 0.00 0.00
6:54 am 06:54 Mostly Cloudy 43 6.1 26 -3.3 51 51 SW 12 19 30.24 1024 10 16 0.00 0.00
7:54 am 07:54 Partly Cloudy 46 7.8 25 -3.9 44 44 WSW 15 24 30.26 1025 10 16 0.00 0.00
8:54 am 08:54 Mostly Cloudy 50 10 24 -4.4 36 36 WSW 15 24 30.26 1025 10 16 0.00 0.00
9:54 am 09:54 Mostly Cloudy 54 12.2 23 -5 30 30 SW 17 28 30.26 1025 10 16 0.00 0.00
10:54 am 10:54 Mostly Cloudy 58 14.4 24 -4.4 27 27 SW 17 28 30.24 1024 10 16 0.00 0.00
11:54 am 11:54 Mostly Cloudy 59 15 24 -4.4 26 26 SSW 22 35 30.20 1023 10 16 0.00 0.00
12:54 pm 12:54 Mostly Cloudy 61 16.1 24 -4.4 24 24 SW 24 39 30.20 1023 10 16 0.00 0.00
1:54 pm 13:54 Mostly Cloudy 63 17.2 24 -4.4 23 23 WSW 28 44 30.18 1022 10 16 0.00 0.00
2:54 pm 14:54 Mostly Cloudy 62 16.7 24 -4.4 23 23 SW 24 39 30.16 1021 10 16 0.00 0.00
3:54 pm 15:54 Mostly Cloudy 63 17.2 23 -5 22 22 SW 23 37 30.15 1021 10 16 0.00 0.00
4:54 pm 16:54 Partly Cloudy 63 17.2 22 -5.6 21 21 SW 22 35 30.14 1021 10 16 0.00 0.00
5:54 pm 17:54 Partly Cloudy 63 17.2 20 -6.7 19 19 SW 21 33 30.14 1021 10 16 0.00 0.00
6:54 pm 18:54 Partly Cloudy 62 16.7 20 -6.7 20 20 SW 17 28 30.15 1021 10 16 0.00 0.00
7:54 pm 19:54 Partly Cloudy 60 15.6 22 -5.6 23 23 SSW 14 22 30.16 1021 10 16 0.00 0.00
8:54 pm 20:54 Mostly Clear 57 13.9 24 -4.4 28 28 SSW 14 22 30.19 1022 10 16 0.00 0.00
9:54 pm 21:54 Clear 56 13.3 27 -2.8 33 33 SW 13 20 30.21 1023 10 16 0.00 0.00
10:54 pm 22:54 Clear 53 11.7 28 -2.2 38 38 SW 8 13 30.23 1024 10 16 0.00 0.00
11:54 pm 23:54 Mostly Clear 52 11.1 29 -1.7 41 41 SW 10 17 30.24 1024 10 16 0.00 0.00

Powered by AerisWeather